sat.trackr.live / text

‹ back to catalog

STARLINK-3828

NORAD 52469 · 2022-049U

PAYLOAD ACTIVE UNKNOWN

§ Identity

Operator
Country
US
Launch date
2022-05-06
Launch site
AFETR
Launch vehicle
Mass (kg)
RCS (m²)

Purposes: comms

External: N2YO · Heavens-Above · Gunter

§ Orbital elements

Epoch: 2026-05-25T02:22:06.573216Z

Period
95.44 min
Inclination
53.2126°
Eccentricity
0.0001571
Mean motion
15.08838974 rev/d
Perigee alt
538.7 km
Apogee alt
540.8 km
Semi-major
6,917.9 km
B*
1.5505e-5
RAAN
76.1142°
Arg perigee
80.9834°
Mean anomaly
279.1336°
Rev number
22,378

§ Raw data

STARLINK-38281 52469U 22049U   26145.09868719 -.00000041  00000+0  15505-4 0  99942 52469  53.2126  76.1142 0001571  80.9834 279.1336 15.08838974223780

JSON: /api/v1/satellites/52469 · /tle

For live sub-satellite position, see the globe view (requires WebGL).

§ Visibility from observer

Set your observer location to see the next 7 days of passes ≥ 10°. The values pass through the URL so the page stays shareable.

No JS? Fill the form by hand. The geolocation button needs JavaScript.